TimeCST,TemperatureF,Dew PointF,Humidity,Sea Level PressureIn,VisibilityMPH,Wind Direction,Wind SpeedMPH,Gust SpeedMPH,PrecipitationIn,Events,Conditions,WindDirDegrees,DateUTC
12:55 AM,23.0,16.0,74,30.43,10.0,North,6.9,-,N/A,,Clear,10,2013-03-06 06:55:00
1:55 AM,21.9,15.1,75,30.45,10.0,NNE,5.8,-,N/A,,Clear,30,2013-03-06 07:55:00
2:55 AM,21.0,15.1,78,30.44,10.0,NE,3.5,-,N/A,,Clear,40,2013-03-06 08:55:00
3:55 AM,19.0,14.0,81,30.43,10.0,ENE,4.6,-,N/A,,Clear,60,2013-03-06 09:55:00
4:55 AM,19.0,14.0,81,30.45,9.0,Calm,Calm,-,N/A,,Clear,0,2013-03-06 10:55:00
5:55 AM,19.0,14.0,81,30.43,9.0,ENE,3.5,-,N/A,,Clear,60,2013-03-06 11:55:00
6:55 AM,17.1,12.9,84,30.43,7.0,East,5.8,-,N/A,,Clear,80,2013-03-06 12:55:00
7:55 AM,19.9,15.1,81,30.44,6.0,East,5.8,-,N/A,,Haze,90,2013-03-06 13:55:00
8:55 AM,21.9,17.1,82,30.46,8.0,East,5.8,-,N/A,,Clear,100,2013-03-06 14:55:00
9:55 AM,25.0,18.0,75,30.46,10.0,Variable,3.5,-,N/A,,Clear,0,2013-03-06 15:55:00
10:55 AM,28.9,19.0,67,30.44,10.0,Variable,4.6,-,N/A,,Clear,0,2013-03-06 16:55:00
11:55 AM,34.0,19.0,54,30.41,10.0,SE,6.9,-,N/A,,Clear,130,2013-03-06 17:55:00
12:55 PM,37.9,18.0,45,30.38,10.0,ESE,9.2,-,N/A,,Clear,120,2013-03-06 18:55:00
1:55 PM,41.0,18.0,40,30.32,10.0,SE,11.5,18.4,N/A,,Clear,140,2013-03-06 19:55:00
2:55 PM,42.1,19.0,40,30.29,10.0,SE,13.8,-,N/A,,Clear,130,2013-03-06 20:55:00
3:55 PM,42.1,18.0,38,30.26,10.0,SE,15.0,-,N/A,,Clear,130,2013-03-06 21:55:00
4:55 PM,42.1,19.9,41,30.24,10.0,SE,18.4,24.2,N/A,,Clear,140,2013-03-06 22:55:00
5:55 PM,39.9,21.0,47,30.22,10.0,SE,12.7,-,N/A,,Clear,140,2013-03-06 23:55:00
6:55 PM,34.0,21.0,59,30.24,9.0,SE,5.8,-,N/A,,Clear,140,2013-03-07 00:55:00
7:55 PM,33.1,21.9,64,30.23,10.0,ESE,5.8,-,N/A,,Clear,110,2013-03-07 01:55:00
8:55 PM,32.0,21.9,66,30.22,10.0,ESE,10.4,-,N/A,,Clear,120,2013-03-07 02:55:00
9:55 PM,30.0,23.0,75,30.22,8.0,ESE,8.1,-,N/A,,Clear,120,2013-03-07 03:55:00
10:55 PM,28.9,21.9,75,30.21,8.0,SE,10.4,-,N/A,,Clear,130,2013-03-07 04:55:00
11:55 PM,27.0,21.9,81,30.22,7.0,ESE,5.8,-,N/A,,Clear,120,2013-03-07 05:55:00